Location: Fairmont
(43.6520°N, 94.4610°W)
Time: 08:43:00
(UTC-05:00)

Daily predictions for brighter satellites

Satellite Brightness Start Highest point End
(mag) Time Altitude Azimuth Time Altitude Azimuth Time Altitude Azimuth
Cosmos 1437 Rocket 2.8 20:01:18 10° S 20:05:17 76° E 20:09:23 10° NNE
Meteor 1-22 Rocket 4.4 19:59:55 10° S 20:05:35 57° E 20:11:29 10° NNE
Cosmos 1844 Rocket 2.9 20:01:21 10° SSW 20:07:00 80° WNW 20:12:40 10° NNE
Cosmos 1378 3.1 20:05:12 10° N 20:08:59 84° E 20:12:43 10° S
SL-27 R/B 2.5 20:07:04 10° NNW 20:10:38 67° ENE 20:14:14 10° SSE
Cosmos 1937 Rocket 3.5 20:06:28 10° SSW 20:11:43 83° ESE 20:17:03 10° NNE
SJ-6B 2.8 20:09:14 10° S 20:12:58 79° WSW 20:16:44 10° NNW
SeaSat 1 2.5 20:08:07 10° SSE 20:13:03 88° ENE 20:18:02 10° NNW
Cosmos 1812 Rocket 3.5 20:11:28 10° S 20:15:52 78° E 20:20:16 10° N
USA 186 2.8 20:15:09 12° ESE 20:16:11 15° ENE 20:17:34 10° NNE
Cosmos 1833 Rocket 3.7 20:11:44 10° N 20:16:33 28° NE 20:21:14 10° ESE
H-2A R/B (2) 3.8 20:17:24 10° S 20:17:33 10° SSE 20:17:42 10° SSE
Cosmos 1818 4.0 20:14:34 10° NNW 20:19:50 46° NE 20:25:02 10° ESE
Cosmos 1076 Rocket 4.4 20:17:03 10° NNE 20:20:46 29° ENE 20:24:27 10° SE
Cosmos 2278 Rocket 2.2 20:16:04 10° S 20:21:37 59° ESE 20:27:13 10° NNE
COSMOS 2487 4.1 20:19:05 10° NNE 20:21:42 19° ENE 20:23:40 13° E
FENGYUN 3A 3.7 20:17:01 10° SSE 20:22:26 90° W 20:27:52 10° NNW
Cosmos 1821 Rocket 4.2 20:16:08 10° S 20:22:32 86° W 20:28:55 10° N
GP-B 4.2 20:20:57 10° SE 20:24:32 25° ENE 20:28:08 10° NNE
Meteor 1-4 Rocket 3.5 20:22:21 10° SSE 20:25:14 25° E 20:28:07 10° NE
Helios 1B rocket 3.4 20:23:18 10° NE 20:26:47 25° E 20:30:13 10° SSE
CZ-3B DEB 3.0 20:16:27 10° SW 20:28:17 88° NW 20:33:30 10° NE
Resurs 01 Rocket 1.6 20:24:36 10° SSE 20:29:00 75° ENE 20:33:26 10° N
Cosmos 1544 3.4 20:28:01 10° SSE 20:31:27 40° E 20:34:55 10° NNE
FengYun 1-2 T 4.4 20:28:30 10° S 20:34:04 78° WSW 20:39:44 10° NNW
H-2A R/B 2.8 20:31:02 10° SSE 20:34:55 89° ENE 20:38:53 10° NNW
Cosmos 1758 3.7 20:32:35 10° SSE 20:36:20 41° E 20:40:06 10° NNE
Cosmos 2297 4.2 20:31:17 10° S 20:36:27 36° ESE 20:41:38 10° NE
Lacrosse 4 Rocket 3.0 20:32:51 10° WSW 20:36:36 36° NW 20:40:22 10° NNE
ATLAS 5 CENTAUR R/B 3.0 20:33:51 10° SSE 20:37:08 19° ESE 20:40:36 10° ENE
Helios 1A 3.3 20:33:58 10° SE 20:37:55 44° ENE 20:41:55 10° N
Cosmos 1605 Rocket 4.0 20:34:19 10° S 20:40:33 73° E 20:46:54 10° NNE
Cosmos 2098 Rocket 4.5 20:36:22 10° SSE 20:43:21 57° E 20:50:45 10° NNE
Cosmos 1953 2.5 20:41:08 10° SSE 20:45:03 48° E 20:48:58 10° NNE
Meteor 1-24 Rocket 4.4 20:39:48 10° NNW 20:45:11 58° W 20:50:43 10° S
Cosmos-2242 3.8 20:44:00 12° SE 20:47:15 28° E 20:50:55 10° NNE
Cosmos 1939 Rocket 3.8 20:46:50 21° ESE 20:48:41 30° ENE 20:52:20 10° N
Cosmos 2082 Rocket 2.4 20:44:56 10° NNW 20:50:31 54° ENE 20:54:34 18° SE
Cosmos 2123 Rocket 4.3 20:46:31 10° NNW 20:52:49 71° W 20:59:03 10° S
Cosmos 372 Rocket 4.3 20:48:10 10° S 20:52:55 40° ESE 20:57:42 10° NE
ALOS 3.7 20:49:31 10° SSW 20:53:54 40° W 20:58:20 10° NNW
Cosmos 1867 3.8 20:51:24 10° S 20:56:35 47° ESE 21:01:49 10° NE
Cosmos 158 Rocket 4.1 20:56:33 10° NNW 21:01:35 57° ENE 21:04:41 23° SE
Cosmos 1802 Rocket 4.5 20:56:21 10° SSE 21:01:46 36° E 21:07:19 10° NNE
Cosmos 1271 Rocket 3.4 21:00:43 28° SE 21:01:58 35° E 21:05:40 10° NNE
USA 215 3.5 20:56:11 10° ENE 21:02:22 44° SE 21:08:31 10° SSW
Cosmos 1743 Rocket 4.5 20:58:43 10° NNE 21:02:35 29° ENE 21:03:13 27° E
CZ-4B DEB 2.6 21:03:42 41° SE 21:04:31 60° ENE 21:07:36 10° N
Lacrosse 5 rocket 2.2 21:01:54 10° NW 21:05:32 33° NNE 21:06:37 27° ENE
Spot 2 Rocket 4.3 21:00:42 10° S 21:05:40 54° W 21:10:42 10° NNW
Cosmos 2061 Rocket 4.2 21:07:19 10° SSE 21:13:25 49° E 21:19:35 10° NNE
Timation 2 Rocket 3.9 21:10:23 10° NNW 21:16:45 72° ENE 21:20:08 28° SE
Cosmos 1674 2.6 21:17:03 10° N 21:20:51 89° W 21:22:20 36° S
Envisat 2.9 21:20:14 22° SSE 21:23:38 85° ENE 21:28:44 10° NNW
H-2A R/B 3.8 21:24:05 17° ENE 21:24:05 17° ENE 21:27:08 10° NNE
Cosmos 1408 Rocket 3.6 21:20:21 10° N 21:24:50 81° W 21:27:36 23° S
Lacrosse 5 2.9 21:25:39 10° WSW 21:30:32 46° NW 21:35:25 10° NE
Cosmos 1125 Rocket 3.8 21:27:17 10° SSW 21:32:27 68° WNW 21:37:40 10° NNE
YAOGAN 6 3.3 21:34:09 42° NE 21:34:09 42° NE 21:37:02 10° N
Cosmos 1048 Rocket 4.3 21:29:58 10° NNW 21:35:02 62° WSW 21:38:01 24° S
USA 267 3.9 21:32:47 27° ENE 21:35:50 43° NNE 21:41:55 10° NW
SPOT 5 3.8 21:35:43 35° ENE 21:35:54 36° ENE 21:40:43 10° N
Cosmos 1459 Rocket 3.9 21:29:47 10° S 21:36:03 79° E 21:42:15 10° N
Cosmos 1184 Rocket 4.4 21:33:18 10° N 21:35:08 27° NNE 21:35:08 27° NNE
Abrixas 4.4 21:36:31 10° W 21:38:12 25° WSW 21:38:12 25° WSW
Cosmos 2173 Rocket 3.9 21:34:28 10° S 21:40:38 84° E 21:46:56 10° N
ERS-1 Rocket 2.8 21:43:24 56° SE 21:44:23 74° ENE 21:49:26 10° N
USA 186 4.5 21:46:42 10° W 21:46:57 10° W 21:47:21 10° W
Cosmos 1470 3.3 21:47:42 30° SSW 21:49:29 58° W 21:53:25 10° N
Cosmos 2058 4.5 21:48:01 10° N 21:50:06 25° NNE 21:50:06 25° NNE
Cosmos 2151 4.0 21:47:47 10° N 21:50:33 34° NNE 21:50:33 34° NNE
Cosmos 1340 Rocket 3.2 21:48:32 10° NNW 21:52:31 61° W 21:52:47 59° WSW
COSMOS 2487 4.2 21:54:06 10° NW 21:57:13 28° WSW 21:57:38 27° WSW
Terra 4.0 22:00:29 14° NE 22:00:29 14° NE 22:01:45 10° NNE
Cosmos 1833 Rocket 3.4 21:55:19 10° NW 22:00:42 48° WSW 22:02:59 31° SSW
Helios 1B rocket 4.5 21:58:30 10° N 22:02:03 28° WNW 22:05:34 10° SW
Cosmos 1733 4.5 22:02:27 32° WSW 22:03:32 40° WNW 22:07:13 10° N
NOAA 11 4.1 22:03:50 70° E 22:03:55 70° ENE 22:09:24 10° N
MetOp-B 4.0 22:06:02 75° ENE 22:06:02 75° ENE 22:11:22 10° N
Cosmos 2278 Rocket 4.4 22:01:34 10° WSW 22:06:07 24° NW 22:10:42 10° N
Cosmos 2251 Rocket 3.4 22:01:47 10° NNW 22:07:00 78° NE 22:07:00 78° NE
SPOT 1/Viking Rocket 4.3 22:08:11 40° NE 22:08:11 40° NE 22:12:07 10° N
Cosmos 2016 Rocket 4.0 22:08:49 29° SSW 22:12:13 78° W 22:18:25 10° N
Meteor 2-17 Rocket 4.5 22:09:44 32° SSW 22:12:48 79° W 22:18:59 10° N
Cosmos 1725 Rocket 3.8 22:19:16 79° SSE 22:19:38 84° E 22:25:52 10° N
ATLAS 5 CENTAUR R/B 2.3 22:16:35 10° SW 22:21:14 58° NW 22:26:22 10° NNE
Meteor 1-11 4.2 22:20:52 10° NNW 22:26:24 74° W 22:26:24 74° W
Tsikada Rocket 3.9 22:27:44 10° N 22:33:57 78° W 22:34:07 77° WSW
Cosmos 2082 Rocket 4.1 22:29:48 10° NW 22:34:12 23° W 22:36:28 18° SW
CZ-3B DEB 3.7 22:35:01 10° W 22:40:41 25° NNW 22:41:56 22° N
H-2A R/B 4.5 22:43:58 16° N 22:43:58 16° N 22:44:53 10° N
Lacrosse 5 rocket 3.9 22:41:13 10° WNW 22:42:20 17° WNW 22:42:20 17° WNW
USA 215 3.6 22:39:05 10° NE 22:45:31 62° NNW 22:51:56 10° WSW
ARGOS 3.9 22:51:56 49° NW 22:51:56 49° NW 22:56:09 10° NNW
H-2A R/B 3.3 23:04:42 39° NNW 23:04:42 39° NNW 23:08:01 10° NNW
Lacrosse 5 4.1 23:10:55 10° WNW 23:14:37 20° NNW 23:15:20 19° N
USA 267 3.7 23:20:08 55° WNW 23:20:08 55° WNW 23:25:09 10° NW
Cosmos 2369 Rocket 4.4 23:32:35 18° NNE 23:32:35 18° NNE 23:34:02 10° NNE
Terra 4.3 23:39:22 18° NNW 23:39:22 18° NNW 23:40:39 10° NNW
